Flag Weather past 2 weeks in Hat Yai, Thailand

Now
77 °F

Passing clouds.


Feels Like: 78 °F
Forecast: 74 / 88 °F
Wind: 2 mph from Southeast

Location: Hat Yai Airport

Current Time: Nov 28, 2014 at 11:21:22 PM

Latest Report: Nov 28, 2014 at 11:00 PM


Visibility: N/A

Pressure: 29.83 "Hg

Humidity: 94%

Dew point: 75 °F

Location of Hat YaiLocation

Historic Weather in Hat Yai — Graph

°F

Hat Yai temperature yesterday

Maximum temperature yesterday: 88 °F (at 12:00 PM)
Minimum temperature yesterday: 75 °F (at 12:30 AM)
Average temperature yesterday: 80 °F

Past Weeks' High & Low Weather Summary

 TemperatureHumidityPressure
High90 °F (Nov 16, 12:30 PM)100% (Nov 13, 11:00 PM)29.95 "Hg (Nov 13, 11:00 PM)
Low73 °F (Nov 16, 3:00 AM)62% (Nov 16, 3:00 PM)29.68 "Hg (Nov 26, 3:30 PM)
Average79 °F89%29.81 "Hg
* Reported Nov 13 10:00 PM — Nov 28 10:00 PM, Hat Yai, Weather by CustomWeather, © 2014

Note: Actual official high and low records may vary slightly from our data, if they occured in-between our weather recording intervals... More about our weather records

Advertising

Hat Yai weather history for previous 24 hours

 ConditionsComfort  
Time TempWeatherWind HumidityBarometerVisibility
10:00 PM
Nov 28
77 °FPassing clouds.No wind100%29.86 "HgN/A
9:30 PM77 °FPassing clouds.2 mph100%29.86 "HgN/A
9:00 PM77 °FPassing clouds.No wind100%29.86 "HgN/A
8:30 PM77 °FPassing clouds.2 mph100%29.86 "HgN/A
8:00 PM77 °FPassing clouds.No wind100%29.86 "HgN/A
7:30 PM79 °FPartly cloudy.5 mph94%29.83 "HgN/A
7:00 PM79 °FPartly cloudy.3 mph89%29.83 "HgN/A
6:30 PM79 °FPartly cloudy.2 mph89%29.80 "HgN/A
6:00 PM79 °FPartly cloudy.3 mph89%29.77 "HgN/A
5:30 PM79 °FLight rain. Broken clouds.6 mph94%29.77 "Hg6 mi
5:00 PM79 °FLight rain. Broken clouds.9 mph94%29.77 "Hg4 mi
4:30 PM84 °FScattered showers. Broken clouds.6 mph84%29.74 "HgN/A
4:00 PM84 °FScattered showers. Broken clouds.7 mph84%29.74 "HgN/A
3:30 PM84 °FScattered showers. Broken clouds.6 mph84%29.74 "HgN/A
3:00 PM82 °FThunderstorms. Broken clouds.7 mph84%29.74 "HgN/A
2:30 PM86 °FScattered showers. Broken clouds.8 mph75%29.74 "HgN/A
2:00 PM88 °FBroken clouds.9 mph70%29.74 "HgN/A
1:30 PM86 °FBroken clouds.6 mph75%29.77 "HgN/A
1:00 PM86 °FBroken clouds.9 mph75%29.77 "HgN/A
12:30 PM86 °FBroken clouds.9 mph75%29.80 "HgN/A
12:00 PM86 °FBroken clouds.8 mph75%29.80 "HgN/A
11:30 AM86 °FBroken clouds.8 mph75%29.83 "HgN/A
10:30 AM86 °FBroken clouds.6 mph79%29.83 "HgN/A
10:00 AM84 °FBroken clouds.6 mph79%29.86 "HgN/A
9:30 AM82 °FBroken clouds.7 mph89%29.86 "HgN/A
9:00 AM82 °FBroken clouds.6 mph89%29.86 "Hg6 mi
8:30 AM82 °FBroken clouds.5 mph89%29.83 "Hg5 mi
8:00 AM81 °FBroken clouds.3 mph89%29.83 "Hg5 mi
7:30 AM77 °FBroken clouds.2 mph100%29.83 "Hg5 mi
7:00 AM77 °FBroken clouds.No wind100%29.80 "Hg4 mi
6:30 AM75 °FFog.No wind100%29.80 "Hg5 mi
6:00 AM75 °FPartly cloudy.No wind100%29.80 "Hg5 mi
5:30 AM75 °FPartly cloudy.No wind100%29.77 "Hg5 mi
4:30 AM77 °FPartly cloudy.No wind100%29.77 "Hg5 mi
2:00 AM77 °FPartly cloudy.No wind100%29.77 "HgN/A
1:00 AM77 °FPartly cloudy.No wind100%29.80 "HgN/A
12:30 AM77 °FPartly cloudy.No wind100%29.80 "HgN/A
12:00 AM77 °FPartly cloudy.No wind100%29.83 "HgN/A
11:30 PM
Nov 27
77 °FPartly cloudy.No wind100%29.83 "HgN/A
11:00 PM77 °FPartly cloudy.No wind100%29.83 "HgN/A
Weather by CustomWeather, © 2014

See weather overviewHow to use our weather pages